STARLINK-1092 (44969 NORAD) Tracking and Keplerian Element Data

This shows tracking and keplerian element data for the satellite.

Feedback or suggestion? Click here.




ElementValue
Catalog44969
NameSTARLINK-1092
Epoch Orbit728
Epoch Day53.25001157
Epoch Year2020
RAAN167.2139
Inclination52.9958
Eccentricity0.0001475
Argument of Perigee20.1166
Mean Anonmoly100.8032
Mean Motion15.73126606
Decay Rate0.00304052
L11 44969U 20001BH 20053.25001157 .00304052 00000-0 20994-2 0 9996
L22 44969 52.9958 167.2139 0001475 20.1166 100.8032 15.73126606 7282

Live tracking and technical data element details for STARLINK-1092 (NORAD 44969). STARLINK-1092 can be tracked NOW for your location showing map with azimuth and elevation plus other details from your city location.

Track the satellite on the map from your city or location and see movement details for azimuth, elevation, latitude, longitude, range, height, and movement on the map or in text.







IsCatalogInMostPopularTable: catalog: 44969, numindb: 13
Update: records affected: 1



GetName: 44969 STARLINK-1092

Hit Count: updated at: Mon, 24 Feb 2020 19:01:33 GMT